Flag for U.S.A. Weather past 2 weeks in Gainesville, Florida, U.S.A.

Now
53 °F

Clear.


Feels Like: 52 °F
Forecast: 40 / 68 °F
Wind: 5 mph from West

Location: Gainesville Regional Airport

Current Time: Dec 18, 2014 at 11:02:29 PM

Latest Report: Dec 18, 2014 at 9:53 PM


Visibility: 10 mi

Pressure: 30.14 "Hg

Humidity: 80%

Dew point: 47 °F

Location of GainesvilleLocation

Historic Weather in Gainesville — Graph

°F

Gainesville temperature yesterday

Maximum temperature yesterday: 69 °F (at 2:53 PM)
Minimum temperature yesterday: 44 °F (at 4:53 AM)
Average temperature yesterday: 54 °F

Past Weeks' High & Low Weather Summary

 TemperatureHumidityPressure
High80 °F (Dec 6, 2:53 PM)100% (Dec 4, 11:53 PM)30.32 "Hg (Dec 4, 11:53 PM)
Low30 °F (Dec 13, 3:53 AM)19% (Dec 14, 2:53 PM)30.02 "Hg (Dec 9, 3:53 PM)
Average54 °F78%30.16 "Hg
* Reported Dec 3 9:53 PM — Dec 18 9:53 PM, Gainesville, Weather by CustomWeather, © 2014

Note: Actual official high and low records may vary slightly from our data, if they occured in-between our weather recording intervals... More about our weather records

Advertising

Gainesville weather history for previous 24 hours

 ConditionsComfort  
Time TempWeatherWind HumidityBarometerVisibility
9:53 PM
Dec 18
53 °FClear.5 mph80%30.14 "Hg10 mi
8:53 PM52 °FClear.5 mph86%30.13 "Hg10 mi
7:53 PM52 °FClear.3 mph83%30.13 "Hg10 mi
6:53 PM52 °FClear.3 mph83%30.12 "Hg10 mi
5:53 PM54 °FClear.No wind77%30.11 "Hg10 mi
4:53 PM62 °FSunny.No wind54%30.10 "Hg10 mi
3:53 PM64 °FSunny.5 mph47%30.11 "Hg10 mi
2:53 PM63 °FSunny.6 mph50%30.11 "Hg10 mi
1:53 PM62 °FSunny.No wind52%30.12 "Hg10 mi
12:53 PM62 °FSunny.5 mph52%30.15 "Hg10 mi
11:53 AM61 °FSunny.6 mph54%30.18 "Hg10 mi
10:53 AM60 °FSunny.6 mph56%30.21 "Hg10 mi
9:53 AM53 °FSunny.No wind74%30.21 "Hg10 mi
8:53 AM49 °FSunny.5 mph84%30.19 "Hg10 mi
7:53 AM43 °FSunny.No wind93%30.18 "Hg10 mi
6:53 AM42 °FClear.No wind96%30.15 "Hg10 mi
5:53 AM41 °FClear.No wind96%30.14 "Hg10 mi
4:53 AM42 °FClear.No wind96%30.13 "Hg10 mi
3:53 AM44 °FClear.No wind85%30.14 "Hg10 mi
2:53 AM45 °FClear.3 mph93%30.14 "Hg10 mi
1:53 AM47 °FClear.9 mph90%30.15 "Hg10 mi
12:53 AM43 °FClear.5 mph93%30.14 "Hg10 mi
11:53 PM
Dec 17
44 °FClear.3 mph89%30.16 "Hg10 mi
Weather by CustomWeather, © 2014

See weather overviewHow to use our weather pages